Theta_e
338 335 327 321 303 302 300 310 322 320 321 328 329 321 329 331 323 316 336 345 351 355 361 363 365 365 363 363 363 362 362 364 362 362 362 363 364 365 364 363 362 362 358 356 355 354 353 352 350
324 323 319 314 299 295 299 317 316 319 325 328 328 323 331 327 331 333 335 347 351 356 359 361 365 364 363 363 362 362 363 363 362 362 362 363 363 364 363 361 361 360 356 354 352 351 350 351 352
323 319 312 304 299 298 299 316 318 323 326 323 325 330 332 331 333 333 339 347 351 352 358 362 364 364 364 364 363 362 362 362 362 362 362 363 363 362 360 359 359 358 354 351 348 348 352 353 355
316 314 313 299 298 305 307 313 321 323 324 323 323 326 339 341 339 338 342 347 347 351 358 363 364 364 364 364 363 362 362 362 361 362 362 362 361 359 358 357 357 356 352 349 350 352 355 357 359
313 310 300 298 301 307 313 316 317 316 318 322 325 330 336 346 340 339 342 343 346 352 357 361 364 364 364 364 363 362 361 360 360 360 361 360 358 357 357 356 355 354 353 354 355 358 359 360 359
306 307 297 296 302 309 314 317 319 314 313 323 325 330 337 346 343 336 338 338 350 352 356 359 363 363 362 363 362 361 359 360 359 359 359 358 357 357 356 355 354 355 356 357 358 359 358 355 356
302 299 296 299 302 306 311 318 316 317 313 321 325 332 334 331 332 339 336 342 349 351 354 356 358 360 362 361 360 359 359 359 358 358 358 358 357 357 356 355 355 356 357 357 358 352 350 351 350
306 300 296 299 299 301 310 317 319 320 318 330 341 329 325 331 335 342 338 346 344 347 350 350 353 355 355 355 360 359 359 359 359 359 358 357 357 357 356 354 355 356 357 357 354 348 347 346 347
308 297 296 296 299 302 308 307 322 322 318 325 340 338 337 336 337 340 340 341 339 342 344 346 349 348 350 352 355 359 359 360 360 359 358 355 349 350 351 353 355 357 357 356 352 349 347 346 347
302 294 297 303 304 302 305 305 316 317 318 321 338 341 340 339 341 338 337 338 336 335 338 341 342 343 344 350 351 350 352 354 352 350 351 348 345 345 348 353 358 359 357 354 352 350 348 347 335
303 300 303 305 306 306 305 306 308 307 314 319 320 339 341 339 338 337 338 341 337 336 336 337 337 337 338 344 347 347 348 347 347 345 346 343 345 348 347 351 351 346 351 340 340 337 335 325 321
299 305 306 306 309 307 306 307 306 306 310 323 328 337 339 336 334 335 335 340 340 337 336 337 336 336 335 344 342 342 344 343 343 344 347 343 342 350 351 349 341 337 336 333 328 323 321 322 322
300 303 306 307 306 306 307 306 305 305 310 314 317 333 335 334 334 335 338 341 343 341 338 339 338 337 339 340 338 339 341 341 342 344 350 347 350 349 336 331 326 324 324 321 323 321 321 321 319
302 303 304 305 304 304 304 305 304 307 310 311 313 316 322 331 332 334 337 337 343 344 340 341 340 342 342 339 336 338 340 341 345 349 347 346 351 341 333 326 325 324 322 322 320 320 320 317 319
303 298 302 303 302 301 305 301 302 307 309 308 309 309 317 325 333 334 336 337 342 342 344 342 342 350 343 343 338 344 346 346 347 347 345 349 342 337 331 327 324 322 321 323 321 320 324 318 325
298 296 291 299 303 305 301 296 304 307 306 306 308 309 310 317 332 336 339 340 344 347 345 347 349 350 350 347 348 347 343 347 348 349 346 341 339 331 326 325 323 323 324 322 322 318 319 317 322
295 290 293 297 303 302 300 296 304 307 306 304 306 306 308 312 318 336 340 344 344 344 345 347 348 348 350 349 346 344 344 348 347 345 338 338 337 332 326 327 323 325 322 324 325 324 319 318 321
290 291 293 295 301 301 298 299 303 306 306 305 305 305 307 308 317 324 341 346 346 345 344 347 348 348 350 346 345 344 345 345 341 338 335 335 332 329 330 325 324 328 325 323 324 321 323 320 322
297 295 294 298 302 298 298 298 300 304 305 302 304 304 305 308 313 320 341 345 346 345 343 345 347 349 350 344 342 344 344 335 333 334 335 332 328 328 327 326 326 328 324 323 325 327 317 318 322
297 294 294 298 302 299 297 297 301 302 302 304 304 305 305 306 307 318 337 343 344 343 343 342 348 350 349 346 343 346 344 335 332 333 332 331 328 328 328 325 327 325 326 325 325 325 325 319 321
296 294 294 295 299 299 296 294 297 302 303 305 306 305 306 307 308 315 334 340 343 342 342 344 349 349 348 346 345 347 341 333 329 328 327 329 330 329 330 327 329 327 326 325 326 325 325 321 322
293 300 299 298 294 287 295 287 293 298 300 302 303 304 304 306 308 311 338 339 341 342 343 345 347 347 347 346 344 343 340 330 328 327 326 327 330 328 331 332 327 327 329 325 324 327 326 323 318
297 301 299 298 294 289 291 286 290 297 297 300 304 305 307 308 307 308 338 340 342 342 342 343 346 345 347 345 344 344 341 333 330 329 326 326 326 327 332 331 328 330 327 329 324 325 326 325 318
304 300 297 294 290 286 289 290 291 292 296 300 303 307 310 309 309 308 328 341 341 342 341 342 343 344 345 345 343 343 342 334 329 329 327 326 327 326 329 332 329 332 330 326 326 325 325 322 323
299 291 286 283 283 284 292 291 292 297 301 302 303 308 311 313 312 313 318 329 339 340 340 340 341 344 343 344 342 344 338 334 331 329 329 327 326 326 327 331 331 332 330 329 327 327 325 326 320
297 293 287 280 282 286 293 289 292 304 307 309 308 310 311 312 314 313 315 322 325 336 335 333 337 335 338 340 342 344 339 335 333 332 330 330 328 328 329 331 333 333 332 331 327 328 325 323 323
295 292 299 291 290 286 289 293 298 307 307 309 307 306 303 307 313 312 317 319 323 326 330 334 329 332 341 339 332 336 342 337 334 333 331 330 330 329 330 332 333 333 331 330 329 326 327 323 323
294 296 291 291 282 281 287 289 292 299 301 305 305 305 305 306 305 315 319 322 323 329 326 326 326 326 334 336 340 341 341 336 335 335 331 330 330 330 330 332 333 331 332 331 329 327 328 325 323
289 287 289 292 292 284 281 286 301 299 300 301 303 305 305 305 304 311 315 319 322 323 324 325 327 330 333 333 334 333 342 334 330 328 328 331 330 329 331 332 333 332 331 330 328 328 327 325 325
293 289 288 284 284 287 286 286 305 303 303 303 302 304 305 305 305 307 315 316 319 319 322 323 321 322 324 324 323 328 337 341 335 333 337 333 330 331 331 333 332 332 331 331 329 329 328 325 325
Wind_Speed
3 5 2 2 4 3 4 6 13 10 10 14 19 5 10 3 9 7 13 19 24 18 16 19 22 20 20 19 18 17 17 15 14 13 12 11 11 10 9 8 7 7 8 6 5 5 4 4 5
4 5 3 4 2 1 6 7 15 7 25 27 24 8 14 6 15 16 12 21 23 18 16 17 24 21 20 19 18 18 17 15 14 13 12 11 10 9 8 7 6 6 6 5 4 4 5 5 6
3 4 1 4 4 7 3 6 15 21 25 10 4 7 4 8 17 10 19 23 23 16 17 18 22 22 21 20 18 17 17 16 15 14 12 11 10 8 7 6 5 5 5 3 2 3 5 7 9
2 3 5 1 10 17 12 13 18 11 18 7 1 8 6 12 7 14 22 21 20 15 15 23 23 22 20 19 19 18 17 16 16 14 12 11 9 8 6 5 4 4 4 3 1 2 4 7 9
1 3 3 5 12 13 18 16 7 9 7 6 7 5 14 20 10 26 24 19 20 14 12 17 25 23 21 20 18 17 16 16 16 15 13 11 9 8 6 5 4 3 2 2 1 3 5 6 9
3 3 2 5 13 16 18 7 5 3 2 2 9 7 5 9 10 15 22 20 18 16 12 13 19 21 21 20 18 17 15 14 15 14 13 12 10 8 7 5 4 2 1 1 2 4 5 7 8
5 2 6 10 14 19 18 9 5 7 9 3 7 8 1 15 18 10 19 20 20 17 12 9 11 16 19 19 18 17 15 14 13 13 12 11 11 10 8 7 5 4 3 3 3 5 5 6 9
4 3 8 10 12 20 18 9 6 13 18 3 16 10 10 13 28 13 18 20 19 16 16 9 7 10 11 11 18 17 15 14 13 12 12 11 10 9 8 8 8 6 4 4 5 7 7 7 10
5 3 10 9 12 20 19 6 9 3 15 12 8 19 10 18 17 11 21 18 16 14 15 13 9 7 8 9 12 15 18 15 13 11 11 9 4 6 8 9 11 9 8 7 9 9 7 8 10
5 4 10 9 15 14 16 11 10 4 7 1 17 13 17 16 12 14 18 18 18 18 16 14 12 10 10 9 9 7 9 6 5 5 6 4 6 6 9 8 12 11 8 9 11 8 7 8 4
9 10 11 15 15 12 10 17 9 8 1 8 6 21 14 9 8 10 15 21 22 21 16 17 15 11 11 9 6 4 4 4 4 7 7 6 5 6 7 3 4 3 6 3 5 3 4 4 2
8 14 16 15 16 12 13 11 11 8 3 5 6 8 13 12 9 9 10 18 21 21 21 20 19 15 11 9 8 7 6 6 5 6 8 5 4 4 4 4 3 3 3 3 2 1 1 5 5
8 10 13 13 12 13 11 12 8 9 13 5 6 11 17 15 12 9 11 13 21 20 21 21 20 18 12 12 9 9 8 8 8 7 7 5 4 4 5 4 4 3 3 3 4 3 2 3 4
9 11 12 11 11 8 9 12 5 9 11 14 5 5 8 10 11 8 7 6 15 17 22 21 20 14 17 12 12 10 9 9 7 6 8 7 3 4 5 4 5 5 3 2 3 1 1 2 1
9 9 12 12 7 7 8 12 9 8 11 14 10 5 10 10 10 10 9 6 17 9 15 21 19 14 17 13 12 8 7 7 8 8 7 6 5 5 5 5 4 3 1 2 2 4 3 2 3
8 7 6 8 10 12 4 12 11 10 9 13 12 8 8 11 14 10 10 9 18 11 16 18 15 12 12 12 6 5 6 7 6 5 6 8 8 7 5 5 4 3 3 3 3 3 4 4 3
7 8 9 10 11 10 8 11 13 13 13 10 11 10 10 8 10 11 11 10 20 18 15 13 13 11 10 8 5 5 6 5 5 5 5 7 7 7 6 5 3 3 3 4 3 3 3 3 3
8 7 9 13 13 9 12 18 15 13 16 16 13 9 12 13 13 9 16 16 20 18 15 11 11 12 9 6 4 3 3 5 5 5 5 7 6 7 6 4 4 4 4 4 3 4 4 3 2
13 10 10 10 10 3 8 8 11 17 15 9 8 9 9 17 11 10 16 20 20 20 23 18 17 12 10 5 4 2 3 4 4 5 8 7 7 7 7 5 5 5 5 3 2 2 4 5 3
17 15 11 10 13 8 9 11 10 7 5 8 8 8 10 7 11 15 17 19 21 21 21 19 18 18 12 10 5 4 3 2 4 5 6 8 7 7 6 7 5 6 5 4 3 4 2 1 3
10 8 8 8 9 10 6 11 11 10 6 7 9 7 8 8 9 10 14 19 19 21 20 19 19 20 18 16 8 5 2 3 3 4 5 4 7 7 7 7 6 6 5 5 3 4 4 1 2
10 9 10 9 8 7 4 12 9 9 11 9 9 11 10 10 8 6 13 20 22 23 25 26 21 22 20 23 16 12 7 6 3 4 4 5 7 6 5 6 7 6 4 5 3 3 2 2 1
11 10 12 10 10 2 5 4 6 7 9 11 16 15 18 17 11 8 19 22 21 21 20 21 23 23 20 21 24 17 15 7 7 6 7 4 3 5 4 6 6 5 5 5 6 4 5 3 3
15 9 11 5 3 8 5 8 10 6 9 9 10 1 7 24 19 9 14 21 19 19 19 20 22 21 22 21 22 23 21 13 13 10 6 4 2 3 6 7 6 6 6 6 6 5 5 4 4
13 5 3 4 4 9 9 11 10 9 12 12 8 2 7 8 9 7 10 16 20 21 19 17 22 21 21 21 18 18 17 18 17 15 9 4 3 3 6 6 6 5 6 6 6 6 5 3 3
9 2 2 10 7 9 11 17 8 9 14 20 8 9 8 9 8 8 9 10 10 10 9 12 8 6 6 9 13 13 17 13 13 16 16 15 13 10 7 6 7 8 7 6 6 4 4 4 3
8 6 6 2 7 3 4 8 7 20 22 21 20 19 20 25 21 10 9 8 7 9 9 12 3 12 8 7 1 3 12 16 14 14 12 14 13 12 13 13 10 8 8 8 7 5 5 5 4
12 11 6 6 4 7 3 4 2 11 14 16 20 18 20 23 27 25 10 13 16 8 4 10 18 19 15 10 11 6 11 13 14 13 15 17 14 10 10 12 12 10 9 9 8 6 6 7 4
14 8 5 4 7 4 2 5 5 7 7 14 14 17 18 20 23 22 20 10 13 11 4 4 3 9 12 10 13 3 11 17 15 14 13 13 13 15 13 15 14 12 12 9 8 8 8 8 7
13 13 7 3 6 3 1 6 5 8 8 10 10 11 15 19 24 23 15 13 10 9 12 7 4 6 9 8 6 7 12 17 14 13 14 15 17 14 18 17 16 14 13 11 11 10 10 10 8
Wind_Direction
236 235 206 314 42 79 218 192 86 12 266 248 249 170 134 9 157 164 123 123 129 135 140 136 135 137 135 135 133 129 126 126 122 120 116 112 113 113 110 110 109 103 96 84 67 53 41 17 349
302 283 200 277 105 297 281 104 111 106 246 266 226 91 75 75 94 117 109 134 133 137 137 139 138 139 137 137 134 134 132 130 127 127 126 121 119 119 120 124 122 112 100 83 55 25 6 349 332
295 253 47 165 203 227 255 145 152 180 241 234 311 58 62 111 110 137 134 137 131 138 136 141 139 140 142 139 138 139 138 136 133 132 132 127 129 127 131 138 137 123 113 101 63 8 341 332 324
325 337 308 120 253 271 257 270 195 215 245 169 232 99 53 121 117 128 130 133 127 133 137 140 141 141 142 142 142 143 144 140 137 136 136 134 136 135 146 149 145 132 128 125 91 349 332 324 317
247 282 257 259 268 270 276 274 225 193 174 173 150 48 75 12 88 128 133 135 127 128 140 142 144 143 145 144 144 144 146 143 140 141 142 142 143 147 160 163 162 153 145 115 37 335 324 316 309
315 152 308 279 281 282 279 285 33 96 85 203 122 84 54 327 33 144 137 136 121 126 135 143 143 142 144 144 144 144 144 144 143 145 145 150 150 161 166 176 176 195 216 323 352 330 326 317 305
198 315 248 265 272 284 287 309 270 308 319 194 138 70 243 102 290 254 138 123 127 130 127 133 142 143 143 143 143 145 146 147 147 147 150 156 158 164 174 183 188 207 255 312 333 315 304 302 302
225 187 276 270 281 279 290 315 92 336 311 147 125 150 220 210 216 207 124 126 129 134 136 139 144 143 141 148 145 144 145 147 149 153 158 166 166 173 180 194 196 204 229 266 262 256 268 283 297
246 243 249 255 269 280 291 321 303 274 303 341 101 146 184 196 216 145 124 133 130 139 142 143 148 153 143 139 152 148 151 154 158 163 170 173 175 185 197 201 208 200 209 230 250 259 285 298 294
198 224 243 242 263 277 291 310 285 248 308 95 112 118 147 169 174 147 145 151 146 149 152 151 154 165 156 154 147 144 156 151 155 170 185 179 197 199 203 191 187 204 205 229 248 256 284 291 279
248 241 252 260 264 279 294 316 323 286 195 308 278 136 156 151 156 161 160 159 155 158 157 159 156 167 165 146 152 153 150 154 179 188 194 190 215 210 202 158 201 204 209 237 259 272 247 279 272
236 247 248 257 266 280 288 295 314 322 238 121 128 183 148 151 169 180 176 146 158 162 162 162 159 168 170 151 163 164 164 174 187 198 199 179 214 214 161 173 175 199 228 225 201 157 188 13 335
255 256 260 263 245 260 278 283 274 297 300 320 332 161 158 159 179 195 183 174 157 163 165 165 164 170 157 159 170 171 177 185 192 189 190 194 205 166 124 134 129 136 127 107 86 65 46 358 34
250 257 263 271 265 255 276 280 327 299 306 315 2 308 155 171 176 188 191 184 165 163 166 162 169 161 155 162 175 179 181 190 180 170 188 169 183 142 130 116 96 76 78 52 114 135 252 336 57
272 280 282 278 278 271 269 284 282 271 294 296 303 299 293 173 176 186 209 202 155 144 151 155 163 143 156 165 179 177 180 170 166 171 175 145 137 127 119 108 93 103 56 41 65 51 45 64 71
304 296 267 278 267 269 229 261 261 275 263 268 277 282 266 265 179 182 199 156 125 120 136 150 159 138 146 166 164 160 159 147 154 152 129 143 128 119 120 102 114 107 45 73 60 43 28 40 56
286 254 263 276 248 252 239 254 244 232 248 250 259 255 260 249 244 182 183 130 138 144 138 145 146 136 133 137 141 139 141 116 137 128 131 134 130 124 111 121 135 91 81 70 73 45 79 47 37
241 252 247 247 258 257 245 247 253 230 224 236 241 243 238 249 226 191 174 154 147 145 132 129 148 142 127 124 123 115 120 117 127 133 129 126 132 129 110 127 122 65 97 70 53 68 38 74 31
264 265 273 280 278 276 272 289 260 244 225 205 238 259 241 230 222 197 164 159 147 150 148 158 156 153 139 141 135 110 135 130 136 140 143 136 144 129 136 127 105 104 100 99 55 45 62 21 32
241 255 272 281 285 280 296 290 286 297 262 197 225 276 261 237 235 203 169 159 154 160 158 163 157 158 157 158 139 132 139 160 146 142 141 135 147 139 146 140 135 136 109 84 61 53 30 40 34
251 236 251 252 287 296 329 292 294 287 278 290 281 242 269 261 251 209 168 161 162 162 162 165 167 169 157 155 145 116 88 101 99 134 118 153 146 151 155 155 147 147 133 138 128 106 49 337 15
234 244 270 270 248 245 206 283 289 278 268 269 252 267 260 268 252 210 171 165 167 173 171 176 167 167 169 159 166 147 170 172 151 134 124 143 145 159 171 163 154 137 136 133 130 116 106 119 176
251 244 248 244 263 295 284 262 262 277 282 263 246 244 254 258 234 216 170 180 184 172 176 177 173 172 177 176 173 166 170 147 139 120 123 108 113 150 168 153 143 138 138 146 130 96 64 73 113
297 281 248 253 228 262 231 239 262 257 254 277 283 270 269 238 229 237 186 181 182 184 179 183 178 183 186 184 184 168 165 148 135 127 117 109 104 218 186 169 168 167 162 154 135 118 112 108 94
289 321 291 311 273 250 214 248 259 263 272 258 265 114 68 58 53 55 32 177 188 188 189 186 182 183 188 190 182 162 140 136 131 139 130 97 165 217 224 179 183 176 165 153 141 136 130 102 104
313 28 264 234 226 251 232 244 253 8 351 4 215 148 65 52 44 39 62 67 82 96 91 53 14 291 282 208 174 151 142 150 154 160 159 149 206 189 190 209 191 171 162 155 150 141 142 129 115
323 328 299 13 318 290 228 318 307 27 19 17 30 34 26 3 349 11 35 72 92 149 165 169 348 329 349 305 29 125 148 167 179 172 169 162 189 187 190 189 186 183 162 162 159 152 151 143 154
11 327 359 354 325 272 260 248 279 28 34 25 13 18 9 10 1 357 25 42 50 54 100 167 188 191 208 201 245 192 175 179 180 165 177 187 190 206 176 176 191 182 174 169 165 164 167 156 175
333 334 322 194 212 239 332 283 127 100 69 71 32 14 10 357 354 345 357 29 50 59 57 244 326 240 226 176 200 231 192 193 189 175 184 182 191 193 172 181 185 187 177 178 174 170 166 164 177
270 279 274 212 280 300 159 264 53 84 51 45 38 43 12 359 351 326 344 8 29 41 65 133 214 219 221 211 205 210 243 199 199 203 180 173 197 189 178 180 187 189 181 179 183 174 178 172 173